Weather History for Marion, IN

Change the Weather History Date:

Saturday, January 26, 2013

  Actual Average (KMIE) Record (KMIE)
Temperature  
Mean Temperature 20 °F 26 °F  
Max Temperature 26 °F 34 °F 55 °F (1973)
Min Temperature 13 °F 19 °F -5 °F (1987)
Degree Days  
Heating Degree Days 46 39  
Month to date heating degree days 1005  
Since 1 July heating degree days 3203  
Cooling Degree Days 0 0  
Month to date cooling degree days 0  
Year to date cooling degree days 0  
Moisture  
Dew Point 14 °F    
Average Humidity 73    
Maximum Humidity 84    
Minimum Humidity 60    
Precipitation  
Precipitation 0.00 in 0.08 in 0.76 in (1989)
Month to date precipitation 1.85  
Year to date precipitation 1.85  
Sea Level Pressure  
Sea Level Pressure 30.29 in    
Wind  
Wind Speed 7 mph (WNW)    
Max Wind Speed 13 mph    
Max Gust Speed -    
Visibility 10 miles    
Events      
T = Trace of Precipitation, MM = Missing Value Source: NWS Daily Summary

Daily Weather History Graph

Daily Weather History Graph

Search for Another Location

Airport:

Trip Planner

Search our weather history database for the weather conditions in past years. The results will help you decide how hot, cold, wet, or windy it might be!

Date:

Astronomy

Jan. 26, 2013 Rise Set
Actual Time 7:57 AM EST 5:53 PM EST
Civil Twilight 7:28 AM EST 6:23 PM EST
Nautical Twilight 6:55 AM EST 6:56 PM EST
Astronomical Twilight 6:22 AM EST 7:28 PM EST
Moon 5:48 PM EST (1/26) 7:14 AM EST (1/26)
Length of Visible Light 10h 55m
Length of Day
9h 56m
Full, 100% of the Moon is Illuminated
Jan 26
Full
Jan 26
Full
Feb 3
Last Quarter
Feb 10
New
Feb 17
First Quarter

Hourly Weather History & Observations

Time (EST) Temp. Windchill Dew Point Humidity Pressure Visibility Wind Dir Wind Speed Gust Speed Precip Events Conditions
12:15 AM 21.7 °F 10.8 °F 15.4 °F 77% 30.07 in 10.0 mi WSW 10.4 mph - N/A   Overcast
12:35 AM 19.6 °F 8.1 °F 14.0 °F 79% 30.08 in 10.0 mi West 10.4 mph - N/A   Mostly Cloudy
12:55 AM 19.6 °F 7.4 °F 14.5 °F 81% 30.09 in 10.0 mi West 11.5 mph - N/A   Overcast
1:15 AM 22.3 °F 10.2 °F 16.9 °F 80% 30.09 in 10.0 mi West 12.7 mph - N/A   Overcast
1:35 AM 23.0 °F 11.7 °F 17.6 °F 80% 30.11 in 10.0 mi West 11.5 mph - N/A   Overcast
1:55 AM 24.3 °F 13.3 °F 17.8 °F 76% 30.11 in 10.0 mi WNW 11.5 mph - N/A   Overcast
2:15 AM 24.4 °F 13.5 °F 16.3 °F 71% 30.12 in 10.0 mi WNW 11.5 mph - N/A   Overcast
2:35 AM 23.0 °F 13.1 °F 14.5 °F 70% 30.13 in 10.0 mi WNW 9.2 mph - N/A   Overcast
2:55 AM 21.2 °F 11.7 °F 13.6 °F 73% 30.13 in 7.0 mi WNW 8.1 mph - N/A   Overcast
3:15 AM 20.8 °F 9.7 °F 13.3 °F 73% 30.14 in 7.0 mi WNW 10.4 mph - N/A   Mostly Cloudy
3:35 AM 20.1 °F 11.3 °F 12.2 °F 71% 30.14 in 10.0 mi WNW 6.9 mph - N/A   Scattered Clouds
3:55 AM 18.9 °F 9.8 °F 11.5 °F 73% 30.15 in 10.0 mi NW 6.9 mph - N/A   Mostly Cloudy
4:15 AM 18.5 °F 9.3 °F 10.4 °F 71% 30.15 in 10.0 mi WNW 6.9 mph - N/A   Overcast
4:35 AM 17.4 °F 10.4 °F 9.7 °F 72% 30.15 in 10.0 mi WNW 4.6 mph - N/A   Overcast
4:55 AM 16.7 °F 8.3 °F 9.7 °F 74% 30.16 in 10.0 mi WNW 5.8 mph - N/A   Overcast
5:15 AM 18.7 °F 11.9 °F 10.8 °F 71% 30.17 in 10.0 mi WNW 4.6 mph - N/A   Overcast
5:35 AM 18.9 °F 10.8 °F 11.3 °F 72% 30.17 in 10.0 mi WNW 5.8 mph - N/A   Overcast
5:55 AM 19.2 °F 10.2 °F 11.8 °F 73% 30.18 in 10.0 mi NW 6.9 mph - N/A   Overcast
6:15 AM 19.9 °F 12.1 °F 12.6 °F 73% 30.19 in 10.0 mi WNW 5.8 mph - N/A   Overcast
6:35 AM 20.1 °F 12.3 °F 12.9 °F 74% 30.20 in 10.0 mi WNW 5.8 mph - N/A   Overcast
6:55 AM 20.1 °F 11.3 °F 13.6 °F 76% 30.21 in 10.0 mi West 6.9 mph - N/A   Overcast
7:15 AM 20.1 °F 11.3 °F 14.0 °F 77% 30.23 in 10.0 mi WNW 6.9 mph - N/A   Overcast
7:35 AM 20.7 °F 11.0 °F 13.8 °F 75% 30.24 in 10.0 mi WNW 8.1 mph - N/A   Overcast
7:55 AM 20.3 °F 9.0 °F 13.6 °F 75% 30.25 in 10.0 mi WNW 10.4 mph - N/A   Overcast
8:15 AM 19.4 °F 8.6 °F 13.1 °F 76% 30.26 in 10.0 mi WNW 9.2 mph - N/A   Overcast
8:35 AM 18.9 °F 8.8 °F 12.7 °F 77% 30.27 in 10.0 mi West 8.1 mph - N/A   Overcast
8:55 AM 18.9 °F 10.8 °F 12.9 °F 78% 30.28 in 7.0 mi WNW 5.8 mph - N/A   Overcast
9:15 AM 19.0 °F 12.3 °F 13.1 °F 78% 30.28 in 10.0 mi NW 4.6 mph - N/A   Overcast
9:35 AM 19.8 °F 9.1 °F 13.3 °F 76% 30.29 in 10.0 mi WNW 9.2 mph - N/A   Overcast
9:55 AM 20.5 °F 9.2 °F 13.6 °F 75% 30.30 in 10.0 mi WNW 10.4 mph - N/A   Overcast
10:15 AM 20.8 °F 9.7 °F 14.0 °F 75% 30.31 in 10.0 mi WNW 10.4 mph - N/A   Overcast
10:35 AM 20.8 °F 11.2 °F 14.0 °F 75% 30.32 in 7.0 mi WNW 8.1 mph - N/A   Overcast
10:55 AM 21.0 °F 10.6 °F 14.4 °F 75% 30.34 in 5.0 mi WNW 9.2 mph - N/A   Haze
11:15 AM 21.7 °F 11.5 °F 14.9 °F 75% 30.35 in 7.0 mi NW 9.2 mph - N/A   Overcast
11:35 AM 22.1 °F 12.0 °F 14.9 °F 74% 30.35 in 5.0 mi NW 9.2 mph - N/A   Haze
11:55 AM 22.6 °F 13.4 °F 15.4 °F 74% 30.35 in 10.0 mi NW 8.1 mph - N/A   Overcast
12:15 PM 23.2 °F 14.1 °F 15.6 °F 73% 30.35 in 10.0 mi NW 8.1 mph - N/A   Overcast
12:35 PM 23.7 °F 16.6 °F 15.6 °F 71% 30.35 in 7.0 mi NW 5.8 mph - N/A   Overcast
12:55 PM 24.4 °F 16.5 °F 15.8 °F 70% 30.34 in 7.0 mi NW 6.9 mph - N/A   Overcast
1:15 PM 24.6 °F 17.7 °F 16.0 °F 70% 30.34 in 10.0 mi North 5.8 mph - N/A   Mostly Cloudy
1:35 PM 25.0 °F 19.3 °F 16.0 °F 69% 30.34 in 10.0 mi NW 4.6 mph - N/A   Mostly Cloudy
1:55 PM 25.2 °F 19.5 °F 15.6 °F 67% 30.34 in 7.0 mi NW 4.6 mph - N/A   Scattered Clouds
2:15 PM 26.2 °F 19.6 °F 15.8 °F 65% 30.34 in 10.0 mi WNW 5.8 mph - N/A   Mostly Cloudy
2:35 PM 26.2 °F 20.7 °F 15.6 °F 64% 30.34 in 10.0 mi NW 4.6 mph - N/A   Overcast
2:55 PM 25.7 °F - 14.4 °F 62% 30.34 in 10.0 mi Calm Calm - N/A   Scattered Clouds
3:15 PM 26.4 °F 19.8 °F 14.2 °F 60% 30.34 in 10.0 mi West 5.8 mph - N/A   Scattered Clouds
3:35 PM 26.6 °F 21.2 °F 14.4 °F 60% 30.35 in 10.0 mi West 4.6 mph - N/A   Scattered Clouds
3:55 PM 26.6 °F 21.2 °F 14.7 °F 61% 30.36 in 10.0 mi WSW 4.6 mph - N/A   Scattered Clouds
4:15 PM 26.2 °F 22.1 °F 14.7 °F 62% 30.36 in 10.0 mi West 3.5 mph - N/A   Mostly Cloudy
4:35 PM 25.2 °F 18.3 °F 15.1 °F 66% 30.37 in 10.0 mi West 5.8 mph - N/A   Mostly Cloudy
4:55 PM 25.0 °F 19.3 °F 15.3 °F 67% 30.36 in 10.0 mi WSW 4.6 mph - N/A   Mostly Cloudy
5:15 PM 25.5 °F 21.3 °F 15.3 °F 65% 30.37 in 10.0 mi WSW 3.5 mph - N/A   Overcast
5:35 PM 25.3 °F - 15.4 °F 66% 30.37 in 10.0 mi Calm Calm - N/A   Overcast
5:55 PM 24.6 °F - 15.4 °F 68% 30.38 in 7.0 mi Calm Calm - N/A   Overcast
6:15 PM 23.0 °F - 15.3 °F 72% 30.38 in 10.0 mi Calm Calm - N/A   Overcast
6:35 PM 23.2 °F - 15.1 °F 71% 30.39 in 10.0 mi Calm Calm - N/A   Overcast
6:55 PM 23.5 °F - 15.4 °F 71% 30.39 in 10.0 mi Calm Calm - N/A   Overcast
7:15 PM 23.2 °F - 14.9 °F 71% 30.40 in 10.0 mi Calm Calm - N/A   Overcast
7:35 PM 23.2 °F 18.7 °F 14.9 °F 71% 30.39 in 10.0 mi SSE 3.5 mph - N/A   Overcast
7:55 PM 21.4 °F - 14.2 °F 74% 30.39 in 10.0 mi Calm Calm - N/A   Overcast
8:15 PM 20.5 °F - 13.8 °F 75% 30.40 in 10.0 mi Calm Calm - N/A   Overcast
8:35 PM 21.0 °F - 13.8 °F 74% 30.40 in 10.0 mi Calm Calm - N/A   Overcast
8:55 PM 19.8 °F - 13.6 °F 77% 30.39 in 10.0 mi Calm Calm - N/A   Overcast
9:15 PM 19.0 °F - 13.1 °F 78% 30.40 in 10.0 mi Calm Calm - N/A   Mostly Cloudy
9:35 PM 16.7 °F 11.2 °F 11.3 °F 79% 30.41 in 10.0 mi South 3.5 mph - N/A   Clear
9:55 PM 14.0 °F 8.2 °F 9.3 °F 82% 30.41 in 10.0 mi SSW 3.5 mph - N/A   Clear
10:15 PM 13.3 °F 5.6 °F 9.1 °F 84% 30.42 in 10.0 mi SSW 4.6 mph - N/A   Clear
10:35 PM 13.6 °F 7.7 °F 9.5 °F 84% 30.42 in 10.0 mi SSE 3.5 mph - N/A   Clear
10:55 PM 14.4 °F 8.6 °F 9.9 °F 82% 30.41 in 10.0 mi SE 3.5 mph - N/A   Clear
11:15 PM 15.3 °F 9.6 °F 10.8 °F 82% 30.42 in 10.0 mi ESE 3.5 mph - N/A   Clear
11:35 PM 16.9 °F 11.5 °F 12.0 °F 81% 30.42 in 10.0 mi SE 3.5 mph - N/A   Clear
11:55 PM 16.3 °F 9.2 °F 11.5 °F 81% 30.41 in 10.0 mi SE 4.6 mph - N/A   Clear